Home > Time Zones > World Clock > Weather > Iran > Tabriz > Past weeks

Flag for Iran Weather past 2 weeks in Tabriz, Iran

Now
93 °F

Passing clouds.


Feels Like: 90 °F
Forecast: 73 / 98 °F
Wind: 14 mph from Southeast

Location: Tabriz Airport

Current Time: Jul 4, 2015 at 2:49:28 PM

Latest Report: Jul 4, 2015 at 2:30 PM


Visibility: N/A

Pressure: 30.07 "Hg (25.77 "Hg at 1388m altitude)

Humidity: 23%

Dew point: 50 °F

Location of TabrizLocation

Historic Weather in Tabriz — Graph

°F

Tabriz temperature yesterday

Maximum temperature yesterday: 102 °F (at 4:30 PM)
Minimum temperature yesterday: 82 °F (at 3:00 AM)
Average temperature yesterday: 92 °F

Past Weeks' High & Low Weather Summary

 TemperatureHumidityPressure
High102 °F (Jul 1, 6:00 PM)52% (Jun 28, 5:00 AM)30.12 "Hg (Jun 28, 5:00 AM)
Low63 °F (Jun 28, 6:30 AM)7% (Jun 21, 7:30 PM)29.68 "Hg (Jun 25, 6:30 PM)
Average82 °F26%29.91 "Hg
* Reported Jun 19 1:30 PM — Jul 4 1:30 PM, Tabriz, Weather by CustomWeather, © 2015

Note: Actual official high and low records may vary slightly from our data, if they occured in-between our weather recording intervals... More about our weather records

Advertising

Tabriz weather history for previous 24 hours

 ConditionsComfort  
Time TempWeatherWind HumidityBarometerVisibility
1:30 PM
Sat, Jul 4
91 °FPassing clouds.18 mph26%30.07 "HgN/A
1:00 PM91 °FPassing clouds.18 mph26%30.07 "HgN/A
12:30 PM88 °FPassing clouds.16 mph31%30.07 "HgN/A
12:00 PM88 °FPassing clouds.14 mph31%30.07 "HgN/A
11:30 AM86 °FPassing clouds.16 mph33%30.07 "HgN/A
11:00 AM84 °FPassing clouds.18 mph37%30.07 "HgN/A
10:30 AM84 °FPassing clouds.18 mph37%30.07 "HgN/A
10:00 AM82 °FPassing clouds.12 mph40%30.07 "HgN/A
9:30 AM81 °FScattered clouds.12 mph39%30.07 "HgN/A
9:00 AM81 °FPartly sunny.9 mph39%30.04 "HgN/A
8:30 AM81 °FPartly sunny.7 mph39%30.04 "HgN/A
8:00 AM81 °FPartly sunny.9 mph39%30.04 "HgN/A
7:30 AM79 °FPassing clouds.9 mph42%30.01 "HgN/A
7:00 AM79 °FPassing clouds.14 mph39%30.01 "HgN/A
6:30 AM79 °FPassing clouds.9 mph39%29.98 "HgN/A
6:00 AM81 °FPassing clouds.14 mph39%29.98 "HgN/A
5:30 AM81 °FPassing clouds.9 mph39%29.98 "HgN/A
5:00 AM81 °FPassing clouds.9 mph39%29.98 "HgN/A
4:30 AM82 °FPassing clouds.16 mph37%29.98 "HgN/A
4:00 AM82 °FPassing clouds.12 mph40%29.98 "HgN/A
3:30 AM82 °FPassing clouds.5 mph40%29.98 "HgN/A
3:00 AM82 °FPassing clouds.12 mph37%29.98 "HgN/A
2:30 AM84 °FPassing clouds.7 mph35%29.98 "HgN/A
2:00 AM84 °FPassing clouds.9 mph35%29.98 "HgN/A
1:30 AM86 °FPassing clouds.12 mph31%29.98 "HgN/A
1:00 AM88 °FPassing clouds.9 mph29%29.98 "HgN/A
12:30 AM88 °FPassing clouds.9 mph27%29.98 "HgN/A
12:00 AM88 °FPassing clouds.7 mph29%29.95 "HgN/A
11:30 PM
Fri, Jul 3
90 °FPassing clouds.12 mph24%29.95 "HgN/A
11:00 PM90 °FPassing clouds.7 mph24%29.95 "HgN/A
10:30 PM90 °FPassing clouds.9 mph24%29.95 "HgN/A
10:00 PM91 °FScattered clouds.7 mph23%29.92 "HgN/A
9:30 PM93 °FScattered clouds.12 mph19%29.92 "HgN/A
9:00 PM93 °FScattered clouds.9 mph20%29.92 "HgN/A
8:30 PM97 °FScattered clouds.12 mph13%29.92 "HgN/A
8:00 PM99 °FScattered clouds.7 mph12%29.89 "HgN/A
7:30 PM100 °FScattered clouds.5 mph12%29.89 "HgN/A
7:00 PM100 °FPassing clouds.5 mph10%29.89 "HgN/A
6:30 PM100 °FPassing clouds.7 mph10%29.92 "HgN/A
6:00 PM100 °FPassing clouds.7 mph10%29.92 "HgN/A
5:30 PM102 °FPassing clouds.5 mph9%29.92 "HgN/A
5:00 PM102 °FPassing clouds.9 mph9%29.92 "HgN/A
4:30 PM102 °FPassing clouds.5 mph9%29.92 "HgN/A
4:00 PM100 °FPassing clouds.5 mph10%29.95 "HgN/A
3:30 PM100 °FPassing clouds.7 mph10%29.95 "HgN/A
3:00 PM100 °FPassing clouds.7 mph10%29.95 "HgN/A
2:30 PM100 °FPassing clouds.2 mph11%29.95 "HgN/A
2:00 PM100 °FPassing clouds.9 mph11%29.95 "HgN/A
Weather by CustomWeather, © 2015

See weather overviewHow to use our weather pages